Location: Recife
(8.0585°S, 34.8848°W)
Time: 10:14:40
(UTC-03:00)

Explorer 7 - Pass Details

Date: 19 April 2026
Orbit: 427 x 536 km, 50.2° (Epoch: 14 May)

Event Time Altitude Azimuth Distance (km) Brightness Sun altitude
Rises 11:49:26 0° 244° (WSW) 2,535 10.2 69.2°
Reaches altitude 10° 11:52:08 10° 264° (W) 1,676 9.5 68.9°
Maximum altitude 11:54:41 17° 307° (NW) 1,309 9.3 68.6°
Drops below altitude 10° 11:57:17 10° 349° (N) 1,711 9.8 68.4°
Sets 12:00:05 0° 9° (N) 2,613 10.5 68.0°
